Dewpoint
70 70 70 70 70 69 69 69 69 69 69 69 69 69 69 69 69 69 69 69 69 69 69 68 68 68 68 68 67 67 66 66 65 65 65 65 65 65 65 65 66 66 66 67 67 67 66 62 59 57 58 58 57 57 58 59 60 60 61 64 66 69 70 70 70 70 70 69 68 68 68 67 67 67 67 66 66 66 65 65 65 65 65 64 64 64 64 64 64 64 63 64 64 64 65 65 66 66 66 66 66 66 66
69 69 69 69 69 69 69 69 69 69 68 68 68 69 69 69 69 69 69 69 69 69 69 69 69 68 68 68 68 67 66 66 66 65 65 65 65 65 65 65 66 66 66 66 66 66 65 60 57 56 58 58 58 58 59 60 60 60 61 62 65 67 69 69 69 69 69 68 68 68 67 67 67 67 66 66 66 65 65 65 64 64 64 64 63 63 63 63 63 63 63 63 63 63 63 64 65 65 65 66 66 66 66
69 69 69 69 69 69 69 69 69 69 68 68 68 69 69 69 69 69 69 69 69 69 69 69 69 69 68 68 68 67 67 66 66 65 65 65 65 65 65 65 65 66 66 66 66 66 66 62 57 55 57 58 59 59 59 60 60 60 61 62 64 65 68 69 69 68 68 68 67 67 67 67 67 66 66 66 65 65 64 64 63 63 63 63 63 63 63 62 62 62 62 62 62 62 62 63 64 64 65 65 65 66 66
69 69 69 69 69 69 69 69 69 68 68 68 68 68 69 69 69 69 69 69 69 69 69 69 69 69 69 68 68 67 67 66 66 66 65 65 65 65 65 65 65 65 66 66 66 65 60 60 57 56 56 58 59 59 60 60 60 61 61 62 63 65 67 68 68 68 68 67 67 67 67 66 66 66 65 65 64 64 63 63 62 62 62 62 62 62 62 62 62 62 62 61 61 61 61 62 62 63 64 64 65 65 66
69 69 69 69 69 69 69 68 68 68 68 68 68 68 68 69 69 69 69 69 69 69 69 69 69 69 69 68 68 67 67 66 66 65 65 65 65 65 65 65 65 65 65 66 66 64 56 58 56 55 55 56 58 60 60 61 61 61 61 62 64 65 67 67 67 67 67 67 66 66 66 66 65 65 65 64 64 63 63 62 62 61 61 61 61 61 61 61 61 61 61 61 60 60 60 61 62 62 63 64 64 65 65
69 69 69 69 69 69 68 68 68 68 68 68 68 68 68 68 69 69 69 69 69 69 69 69 69 69 69 68 68 67 67 66 66 66 65 65 65 65 65 65 65 65 65 66 66 64 58 54 52 52 54 55 57 59 60 61 62 62 62 62 64 65 66 66 66 66 66 66 66 66 65 65 65 65 64 64 63 63 62 62 62 61 61 61 61 61 61 61 61 61 61 60 60 60 60 60 61 62 62 63 64 64 65
69 69 69 69 69 69 69 68 68 68 68 68 68 68 68 68 69 69 69 69 69 69 69 69 69 69 69 68 68 67 67 67 66 66 65 65 65 65 65 65 65 65 65 66 65 64 60 52 50 51 53 54 56 58 60 61 62 62 62 63 64 65 65 65 65 65 65 65 65 65 65 65 65 64 64 63 63 63 62 62 62 61 61 61 61 61 61 61 61 60 60 60 60 60 60 60 60 61 62 63 63 64 64
69 69 69 69 69 69 69 68 68 68 68 68 68 68 68 68 68 68 69 69 69 69 69 69 69 69 69 68 68 67 67 67 66 66 65 65 65 65 65 65 65 65 66 66 65 65 64 55 51 51 51 54 55 57 60 61 62 63 63 64 65 65 65 65 65 65 65 65 65 65 65 65 65 64 64 63 63 63 62 62 61 61 61 61 61 61 61 61 60 60 60 60 60 60 60 60 60 61 61 62 63 63 64
69 69 69 69 69 69 69 68 68 68 68 68 68 68 68 68 68 68 68 69 69 69 69 69 69 69 69 68 68 67 67 67 66 66 65 65 65 65 65 65 65 65 66 66 66 65 65 58 52 49 51 53 55 57 60 61 63 63 64 64 65 65 65 65 65 65 65 65 65 65 65 65 64 64 64 63 63 63 62 62 61 61 61 60 60 60 60 60 60 60 60 60 60 60 60 60 60 60 61 62 62 63 63
69 69 69 69 69 69 69 68 68 68 68 68 68 68 68 68 67 67 68 68 69 69 69 69 69 69 69 69 68 68 67 67 67 66 66 65 65 65 65 65 65 66 66 66 66 66 66 59 52 49 51 52 55 57 60 61 63 64 64 65 65 65 65 65 65 65 65 65 65 65 65 65 64 64 64 63 63 63 62 62 61 61 60 60 60 60 60 60 60 60 60 60 60 60 60 60 60 60 60 61 62 62 62
69 69 69 69 69 69 69 68 68 68 68 68 68 68 68 68 67 67 67 67 67 68 68 69 69 69 69 69 68 68 67 67 67 66 66 66 66 65 65 65 65 66 66 66 66 66 66 57 51 49 50 52 54 56 58 60 62 63 63 65 65 65 65 65 65 65 65 65 65 65 65 65 64 64 64 63 63 62 62 62 61 61 60 60 60 60 60 60 60 60 60 60 60 60 60 60 60 60 60 61 61 62 62
68 68 69 69 69 69 69 68 68 68 68 68 68 68 68 67 67 67 66 66 66 67 67 68 68 69 69 69 68 68 68 67 67 67 66 66 66 66 65 65 66 66 66 66 66 65 65 56 50 49 49 51 53 55 56 58 60 61 63 65 65 65 65 65 65 65 65 65 65 65 65 64 64 64 64 63 63 62 62 61 61 61 60 60 60 60 60 60 60 60 60 60 60 59 59 60 60 60 60 60 60 61 61
68 68 68 68 68 68 68 68 68 68 68 68 68 68 68 67 67 67 66 66 66 66 66 66 67 67 68 68 68 68 68 67 67 67 66 66 66 65 65 65 65 66 66 65 65 63 60 53 49 48 49 51 52 54 55 57 59 60 63 65 65 65 65 65 65 65 65 65 65 65 65 64 64 64 63 63 63 62 62 61 61 60 60 60 60 60 60 60 60 60 60 60 60 59 59 59 60 60 60 60 60 60 60
68 68 68 68 68 68 68 68 68 68 68 68 68 67 67 67 67 67 66 66 65 65 65 65 65 65 66 67 67 67 67 67 67 67 66 66 66 65 65 65 65 65 65 65 63 59 56 50 48 48 49 51 52 53 56 57 59 61 64 64 65 65 65 65 65 65 65 65 65 65 65 64 64 64 63 63 62 62 61 61 61 60 60 60 60 59 60 60 60 60 60 60 60 59 59 59 59 59 59 59 59 59 60
67 67 68 68 68 68 68 68 68 68 68 68 68 68 67 67 67 67 66 66 65 65 64 63 63 64 65 65 65 66 66 66 66 66 66 65 65 65 65 65 65 65 65 63 60 56 51 49 48 49 49 50 51 52 55 57 60 62 64 64 64 65 65 65 65 65 65 65 65 65 65 64 64 64 63 63 62 62 61 61 61 60 60 60 59 59 59 59 60 60 60 60 59 59 59 59 59 59 59 59 59 59 59
66 66 67 68 68 68 68 68 68 68 68 68 68 68 67 67 67 66 66 66 65 65 64 62 62 62 62 63 64 64 64 65 65 65 65 65 64 64 64 64 64 64 62 60 58 55 49 48 48 49 50 50 50 51 54 57 60 63 63 63 64 64 65 65 65 64 64 64 65 65 65 64 64 64 63 63 62 62 61 61 61 60 60 60 59 59 59 59 59 60 60 60 59 59 59 59 59 59 59 59 59 58 58
65 65 67 68 68 68 67 67 68 68 68 68 68 68 67 67 67 66 66 66 65 65 64 63 62 61 61 62 62 61 59 60 61 62 63 63 63 62 62 63 63 61 58 56 55 53 49 48 48 49 49 49 50 51 54 58 61 64 63 63 63 63 64 65 65 65 64 64 64 65 65 64 64 64 63 63 62 62 61 61 60 60 60 60 59 59 59 59 59 59 59 59 59 59 59 59 59 59 59 59 59 58 58
65 66 68 68 68 68 67 67 67 67 68 68 68 68 68 67 67 67 66 66 65 65 65 64 63 62 61 61 60 57 51 52 54 56 58 60 61 61 61 61 60 58 55 54 53 51 50 48 48 48 49 49 50 52 56 59 61 63 63 62 62 62 63 64 64 65 65 65 65 65 65 64 64 64 64 63 63 62 61 61 60 60 60 60 59 59 59 59 59 59 59 59 59 59 59 59 59 59 59 59 59 58 58
66 67 68 68 68 68 67 67 67 67 67 67 68 68 68 68 67 67 66 66 65 65 65 65 64 64 63 63 61 57 51 49 49 50 51 54 57 59 59 57 54 52 51 51 50 49 49 48 48 48 48 49 51 53 57 60 61 62 62 62 62 62 62 63 63 64 65 65 65 65 65 64 64 64 64 63 63 62 61 61 60 60 60 60 59 59 59 59 59 59 59 59 59 59 59 59 59 59 59 58 58 58 58
66 67 68 68 68 68 68 67 67 67 67 67 67 67 68 67 67 67 67 66 66 65 65 65 65 65 65 64 62 59 56 52 50 49 48 48 50 52 52 51 50 49 49 47 47 47 48 48 48 48 47 49 51 54 57 60 62 62 62 61 61 61 61 62 62 63 64 64 65 65 65 65 64 64 64 64 63 62 61 61 60 60 60 59 59 59 59 59 59 59 59 59 59 59 59 59 59 59 58 58 58 58 58
66 67 67 67 67 67 67 67 67 67 67 67 66 65 66 66 67 67 67 66 65 65 65 65 64 63 63 62 60 59 57 55 53 52 51 48 47 47 48 49 49 48 48 47 46 47 48 49 49 48 47 48 49 52 57 60 62 62 61 61 61 61 61 61 61 62 62 63 64 65 65 65 65 65 64 64 63 63 62 61 60 60 60 59 59 59 58 58 58 58 58 58 58 58 58 59 58 58 58 58 58 58 58
65 65 66 66 66 66 66 66 66 66 66 67 65 63 63 64 65 65 66 65 65 65 65 64 63 61 59 58 57 56 56 55 55 54 54 52 51 50 50 50 50 49 48 46 46 47 48 48 49 48 47 47 48 51 57 61 62 62 60 60 60 60 60 60 60 61 61 62 63 64 64 65 65 65 64 64 64 63 62 61 60 60 60 59 59 58 58 58 58 58 58 58 58 58 58 58 58 58 58 58 57 57 57
63 64 64 65 65 65 64 64 64 65 65 66 65 63 62 62 63 64 65 63 63 63 63 63 61 59 57 56 55 54 54 54 55 55 55 54 54 53 52 51 50 49 48 47 47 47 47 48 48 48 47 47 48 51 57 61 63 62 60 60 60 60 60 60 60 60 60 60 61 62 63 65 65 65 64 64 64 63 62 61 61 60 60 59 59 58 58 58 58 58 58 58 58 58 58 58 58 58 58 57 57 57 57
62 62 63 63 63 63 63 62 62 63 63 65 64 63 60 61 61 62 62 61 60 60 61 60 59 58 56 55 54 53 53 53 54 54 53 54 54 54 53 51 51 50 49 47 47 47 47 48 48 48 47 47 48 51 57 61 62 61 60 60 59 59 59 59 59 59 59 60 60 61 62 63 64 64 64 64 64 64 63 62 61 60 60 59 59 58 58 58 58 58 58 58 58 58 58 58 58 58 58 57 57 57 57
61 61 61 61 61 61 61 60 60 61 60 61 61 60 59 58 59 59 60 59 58 58 58 58 57 57 56 55 54 53 53 52 52 52 52 52 52 53 53 52 51 50 50 48 48 48 48 48 47 47 47 47 48 51 56 61 62 61 60 59 58 58 58 58 59 59 59 59 59 60 60 62 63 64 64 64 64 64 63 62 61 60 60 59 59 58 58 57 57 57 58 57 57 57 57 58 58 58 58 57 57 57 56
61 61 60 60 60 60 60 60 60 60 60 59 59 59 58 57 57 57 57 58 57 57 57 56 56 56 56 55 54 54 53 53 52 51 51 51 51 51 52 51 51 51 50 49 48 48 48 48 47 47 46 46 48 51 55 60 62 62 61 60 59 58 57 57 58 58 59 59 59 59 59 60 61 62 63 64 64 65 64 63 62 61 60 60 59 58 58 57 57 57 57 57 57 57 57 57 57 57 57 57 57 56 56
61 61 60 60 60 60 60 60 60 60 60 60 60 60 59 58 58 57 57 57 57 57 56 56 56 56 56 55 55 55 54 54 53 52 52 51 51 51 51 51 51 51 50 49 49 48 48 47 47 46 46 46 47 49 52 59 61 62 61 60 59 58 57 57 57 57 58 58 58 58 58 59 60 60 61 63 64 65 65 64 63 62 61 60 60 59 58 58 57 57 57 57 57 57 57 57 57 57 57 57 57 56 56
61 60 60 60 60 60 60 60 60 60 60 60 60 60 60 59 58 58 58 58 57 56 56 56 55 55 56 56 56 55 55 55 54 54 53 53 52 51 51 51 51 51 50 49 49 48 47 47 46 46 45 46 47 48 50 56 60 61 61 61 60 59 58 57 56 56 57 57 58 58 58 58 59 59 60 61 63 64 65 64 63 63 62 61 60 60 59 58 58 58 58 58 57 57 57 57 57 57 57 57 56 56 56
60 60 60 60 60 60 60 60 60 60 60 60 60 59 59 58 58 58 58 58 57 56 56 56 56 56 56 56 56 56 55 56 55 55 54 54 53 52 51 50 50 50 50 49 48 47 47 46 46 45 44 45 47 48 49 53 58 61 61 61 60 60 58 57 56 56 56 57 57 58 58 58 58 59 59 60 61 63 64 64 64 63 62 62 61 60 60 59 58 58 58 58 58 57 57 57 57 57 57 56 56 56 56
60 60 60 60 60 59 59 59 59 59 60 60 59 58 58 58 57 57 57 56 56 56 56 55 55 55 55 56 56 56 57 57 56 55 54 54 53 52 51 51 50 50 49 49 48 47 47 46 45 45 45 45 46 47 49 51 56 60 61 61 61 60 60 58 57 56 55 56 56 57 57 57 58 58 58 59 60 62 63 64 64 64 63 62 62 61 60 60 59 58 58 58 58 58 57 57 57 57 56 56 56 56 56
60 60 60 60 59 58 58 58 58 59 59 60 59 58 58 58 57 57 56 56 56 55 55 55 55 55 56 56 57 57 57 57 56 55 54 53 53 53 51 51 50 49 49 49 49 48 47 46 46 46 47 47 47 47 48 50 54 58 61 61 61 61 60 60 58 57 56 56 56 56 56 56 57 58 58 59 60 60 62 63 63 64 64 63 63 62 61 60 60 59 59 58 58 58 58 58 57 57 57 56 56 56 56
60 60 60 60 59 58 58 59 59 59 59 59 59 59 59 58 58 58 57 57 56 56 56 56 57 57 57 57 58 58 57 57 56 56 55 54 54 53 53 51 50 49 48 49 48 48 48 47 47 47 47 47 47 48 48 49 51 55 60 60 61 61 61 60 60 59 58 56 56 55 55 56 56 57 57 58 58 60 61 62 63 64 65 65 65 64 63 62 61 60 59 59 59 58 58 58 58 58 57 57 57 56 56
59 60 60 59 58 58 59 59 59 60 60 60 60 60 60 59 59 59 59 58 57 57 57 57 57 57 57 57 57 58 58 56 56 56 56 56 55 54 54 51 50 49 49 48 48 48 48 48 47 47 47 47 48 48 47 47 49 52 57 60 60 61 61 61 60 60 60 58 56 55 55 55 56 56 57 57 57 58 59 60 61 62 64 64 65 65 64 63 62 61 60 60 59 59 59 58 58 58 58 58 57 57 56
59 59 60 59 58 58 59 59 59 60 60 60 60 60 60 60 59 59 59 59 58 58 57 57 57 57 57 57 57 57 57 56 56 56 56 56 56 55 54 53 51 50 49 48 48 48 48 48 48 48 49 49 48 48 47 47 47 50 52 57 59 60 61 61 61 61 61 59 57 56 55 55 56 56 56 56 57 57 58 58 59 60 61 62 63 63 63 62 62 61 61 60 60 59 59 59 59 59 58 58 58 57 57
58 59 59 58 58 58 59 59 59 60 60 60 60 60 59 59 59 59 59 59 58 58 57 57 57 57 57 57 56 56 56 56 56 56 55 55 55 55 55 54 53 52 51 50 49 49 49 49 49 49 49 49 49 49 48 48 48 49 51 55 57 59 60 61 61 61 61 60 59 57 56 56 55 56 56 56 57 57 57 57 57 58 59 60 60 61 61 61 61 61 61 60 60 60 59 59 59 59 59 59 58 58 58
58 59 58 57 58 58 59 59 59 60 60 60 60 60 59 59 60 60 60 60 59 59 58 58 58 58 57 57 57 56 56 56 56 56 56 55 55 55 56 55 54 54 53 52 52 52 51 51 51 51 51 51 51 50 50 50 49 49 50 52 54 56 58 60 60 60 61 60 60 58 57 56 56 56 56 56 56 57 57 57 57 57 57 58 59 60 60 60 60 60 60 60 60 60 60 60 60 60 60 59 59 59 59
58 58 58 57 57 58 59 59 60 60 60 60 60 60 60 60 60 60 60 60 59 59 59 59 59 59 59 58 57 57 57 57 57 57 57 56 56 56 56 56 55 55 55 55 55 54 53 53 53 53 53 53 52 52 52 52 51 50 50 51 51 53 55 55 56 58 60 60 60 60 59 58 57 56 56 56 56 56 57 57 56 56 57 57 58 59 59 60 60 60 60 60 60 60 60 60 60 60 60 60 60 60 59
58 58 57 57 57 58 58 59 60 60 60 60 60 60 60 60 60 60 60 60 60 60 60 60 60 60 60 59 58 58 58 58 58 57 57 57 57 57 57 56 56 56 56 56 56 56 55 54 54 54 54 54 54 54 53 54 53 52 51 51 51 51 51 51 52 53 56 59 60 60 60 60 59 57 56 56 56 56 56 56 56 56 57 57 57 57 58 58 59 59 59 59 60 60 60 60 60 60 60 60 60 60 60
58 57 57 57 57 58 58 59 60 60 60 60 60 60 60 60 60 60 60 60 60 60 60 60 60 59 59 59 59 59 59 58 58 58 58 58 57 57 57 58 57 57 56 56 56 56 55 55 55 55 55 55 55 54 54 54 53 53 53 52 51 50 50 49 49 51 53 56 58 60 61 61 60 58 57 57 56 56 56 56 56 57 57 57 57 56 56 56 57 57 57 58 58 59 59 59 59 59 59 59 59 60 60
57 57 57 57 58 58 59 59 60 60 60 60 60 60 60 60 60 60 60 60 60 60 60 60 59 59 59 59 59 59 59 58 58 58 58 58 58 58 57 58 58 57 57 56 56 56 55 55 55 55 55 55 55 55 54 54 53 53 53 53 52 51 49 49 49 50 51 53 56 58 61 61 60 59 58 57 57 56 56 56 57 57 57 57 56 56 56 56 56 56 56 56 57 57 58 58 59 59 59 58 59 60 60
57 57 57 58 58 59 59 60 60 60 60 60 60 60 60 60 60 60 60 60 60 60 59 59 59 59 59 59 59 59 58 58 58 58 57 57 57 57 57 58 58 57 57 57 57 56 56 55 55 55 54 54 55 54 54 53 52 52 53 53 52 51 50 50 50 49 49 51 53 56 59 61 61 60 59 58 57 57 57 57 57 58 57 57 57 56 56 56 55 55 56 56 56 56 57 58 58 59 59 59 59 59 60
58 58 58 58 59 59 60 60 60 60 60 60 60 60 60 60 60 60 60 59 59 60 59 59 59 59 58 58 58 58 57 57 57 57 57 56 56 57 57 57 57 57 57 57 57 56 56 56 56 55 55 54 54 54 53 52 52 52 52 52 52 51 50 50 48 47 47 48 50 53 57 60 61 61 60 60 59 58 58 58 58 58 58 57 57 57 56 56 56 56 56 56 56 56 56 57 57 58 58 59 59 59 60
58 58 58 59 59 60 60 60 60 60 60 60 60 60 60 60 60 60 60 59 59 59 60 59 59 58 58 58 58 57 57 56 56 56 56 56 56 56 56 56 56 56 57 57 57 56 56 56 56 56 56 55 54 54 53 53 53 53 52 51 50 49 47 47 47 47 47 47 48 50 55 58 60 61 61 60 60 60 59 60 59 58 57 57 56 56 57 56 56 56 56 56 56 56 56 56 56 57 58 58 58 58 60
59 59 59 59 60 60 60 60 60 60 60 60 60 60 60 60 60 60 60 60 59 59 59 59 59 59 58 58 58 57 56 56 56 56 55 55 55 55 56 56 56 56 56 56 56 56 56 56 56 57 57 56 54 54 54 54 54 53 52 50 48 47 46 46 46 46 46 46 46 47 50 54 57 59 60 60 60 60 60 60 60 58 57 56 56 56 56 56 56 56 56 56 56 55 55 55 56 56 56 57 57 58 59
60 60 60 60 60 60 60 60 60 60 61 60 60 60 60 60 60 60 60 60 60 59 59 59 59 59 59 58 58 57 57 56 56 56 56 55 55 55 55 56 56 56 56 56 56 56 56 56 56 56 56 55 54 54 54 54 52 51 49 48 47 46 46 46 46 46 45 45 45 46 46 49 51 55 58 59 59 59 59 60 59 59 57 56 56 56 56 56 56 56 56 56 55 55 55 55 55 55 56 56 56 57 58
60 60 60 60 60 60 60 60 60 61 61 61 60 60 60 60 60 60 59 59 59 59 59 59 59 59 59 58 58 57 57 57 57 57 56 56 56 56 56 56 56 56 55 56 56 55 55 56 56 55 55 54 54 53 52 52 50 49 49 48 47 45 45 46 45 45 44 45 45 46 47 47 47 48 51 53 54 55 57 59 59 59 57 56 56 56 56 56 55 55 55 55 55 54 54 54 54 55 55 55 56 56 57
60 60 60 60 60 60 60 60 61 61 61 61 60 60 60 60 60 59 59 59 59 59 59 59 59 59 59 59 59 58 57 57 57 57 57 56 56 56 56 56 56 56 56 56 55 55 56 56 55 55 54 54 54 52 50 50 49 49 49 48 46 45 45 45 45 44 44 45 45 45 45 45 43 43 45 47 49 51 55 57 59 59 58 56 56 56 55 55 54 54 55 54 54 54 54 54 54 54 54 55 55 56 56
60 60 60 60 60 60 60 60 61 62 62 61 61 60 60 60 60 60 59 59 59 59 60 60 59 58 58 58 58 58 58 58 57 57 57 56 56 56 56 56 56 56 56 56 56 55 56 55 55 55 54 54 53 51 50 49 49 49 49 49 47 45 45 45 44 44 43 44 43 43 42 42 41 41 42 43 45 48 52 55 57 58 58 57 56 55 54 54 54 54 54 54 54 54 55 54 54 54 54 54 54 55 55
61 61 60 60 60 60 60 60 61 62 62 61 61 60 60 60 60 60 60 59 59 59 60 60 60 59 58 58 58 58 58 58 58 58 57 56 56 56 56 56 56 56 56 56 56 56 56 55 55 55 54 53 52 51 50 49 49 49 49 49 47 45 44 44 43 43 43 43 42 42 42 42 42 42 42 43 44 46 48 51 53 56 57 56 55 54 53 53 54 54 54 54 54 55 56 55 55 55 55 54 54 54 54
61 61 61 61 61 60 60 60 61 62 62 61 61 60 60 60 60 60 60 59 59 59 59 60 60 59 58 58 58 58 58 58 58 57 57 56 56 55 55 55 55 54 54 56 56 56 56 55 55 54 53 53 52 51 50 49 49 48 48 48 47 46 43 43 43 43 43 43 43 44 44 43 44 44 45 45 45 46 46 47 49 52 55 54 52 51 51 53 53 53 53 53 54 55 56 56 56 56 56 55 55 54 54
61 61 61 61 61 61 61 60 61 61 62 62 61 61 60 60 60 60 60 59 59 59 59 59 59 59 59 58 58 58 58 58 58 57 56 56 55 55 54 55 55 55 55 54 55 56 56 55 54 54 53 53 51 50 49 49 48 48 48 48 47 45 43 43 43 43 43 44 45 45 45 45 45 46 46 46 46 46 46 46 47 48 49 49 47 46 47 51 51 52 52 52 53 54 55 56 56 56 56 56 56 55 54
61 61 61 61 61 61 61 61 61 61 62 61 61 61 60 60 60 60 60 59 59 59 59 59 59 59 59 59 59 58 58 58 58 57 56 56 55 56 56 56 55 54 53 52 53 55 56 55 55 54 53 52 51 50 49 49 49 48 48 48 47 45 44 45 46 45 44 44 45 45 45 46 46 46 46 46 46 46 46 46 46 46 46 45 45 45 47 50 51 51 51 52 53 53 54 55 56 56 57 56 56 56 55
62 62 61 61 61 61 61 61 61 61 61 61 61 60 60 60 60 60 60 60 59 59 59 59 59 59 59 59 59 58 59 58 58 57 56 56 56 56 56 56 55 53 53 52 51 51 54 54 54 54 53 51 50 49 49 49 49 49 48 47 46 45 46 47 47 47 47 45 44 45 45 46 46 46 46 47 47 47 47 46 46 46 45 44 44 45 47 49 51 51 51 51 52 53 54 55 56 56 57 57 56 56 56
62 62 62 61 61 61 61 61 61 61 61 61 61 60 60 60 60 60 60 60 60 59 59 59 59 58 58 58 58 58 58 59 58 57 57 56 56 56 55 55 55 54 53 52 51 50 49 50 52 53 53 51 50 49 49 50 49 48 48 47 46 46 46 47 48 48 48 47 46 45 45 46 46 46 46 47 47 47 47 47 46 46 45 44 44 44 46 48 50 50 50 50 51 52 53 54 55 56 56 56 56 56 56
62 62 62 62 61 61 61 62 61 61 61 61 61 60 60 60 60 60 60 60 60 60 59 59 59 59 58 58 58 58 58 59 59 58 57 57 57 56 56 56 55 54 53 52 51 50 47 51 51 51 51 51 50 50 50 50 49 49 49 48 47 46 47 47 48 49 49 48 48 47 47 47 46 46 46 47 47 47 47 47 47 46 46 45 45 46 48 50 49 48 48 49 50 51 52 54 55 55 56 56 56 56 56
62 62 62 62 62 62 62 62 61 61 61 61 61 61 60 60 60 60 60 60 60 60 60 59 59 59 59 58 58 58 59 58 58 57 57 57 58 58 57 56 55 53 52 51 49 49 52 54 53 51 50 51 51 50 50 50 49 49 50 49 47 47 47 48 49 49 49 48 47 47 48 47 47 47 47 47 47 47 47 47 47 46 46 45 44 45 45 45 45 46 47 47 49 50 51 53 54 54 55 56 56 56 56
62 62 62 62 62 62 62 62 61 61 62 62 62 61 61 61 61 60 60 60 60 60 60 60 59 59 59 59 59 59 59 59 58 58 58 57 58 58 58 57 56 55 54 52 51 51 54 55 54 52 51 52 52 52 51 50 49 49 50 49 48 47 48 49 50 50 50 48 47 47 47 47 47 47 47 47 47 46 46 46 46 46 46 45 44 44 45 46 47 47 47 47 48 49 51 52 53 54 54 55 55 56 56
62 62 62 62 62 62 62 62 62 62 62 62 62 62 63 62 61 61 61 61 61 61 60 60 60 60 60 60 60 60 59 59 59 59 59 58 58 58 58 58 58 58 57 57 56 56 55 55 53 53 52 53 54 54 52 51 50 50 50 50 49 49 49 49 50 50 50 49 47 47 46 47 47 47 47 46 46 46 46 46 46 46 46 45 45 45 46 47 47 47 47 48 49 50 51 51 52 53 54 54 55 55 55
62 62 62 62 62 62 62 62 62 62 62 62 63 64 63 62 62 62 62 61 61 61 62 61 61 61 62 62 62 61 60 59 59 59 58 58 58 57 57 57 57 58 58 58 58 58 57 55 54 54 53 52 53 54 54 52 51 51 50 50 50 50 50 50 49 49 49 48 47 46 46 46 47 47 47 47 47 46 46 46 46 46 46 45 45 46 47 47 48 48 48 49 49 50 51 51 52 52 53 54 54 54 55
62 62 62 62 62 62 62 62 62 62 63 62 63 64 63 63 62 62 62 62 62 62 62 62 62 62 63 63 62 61 60 60 60 60 58 57 57 58 58 58 58 58 58 57 57 57 57 56 56 55 54 53 52 53 53 53 53 52 51 50 50 50 51 50 50 49 48 48 47 47 46 47 47 47 47 47 47 47 47 47 47 47 46 46 45 46 46 46 46 47 47 48 48 49 50 51 51 52 52 53 54 54 54
62 62 62 62 62 62 62 62 63 63 63 62 63 63 63 63 63 63 63 62 62 62 62 62 62 63 63 63 63 62 61 60 60 60 59 58 58 58 58 58 58 57 57 57 56 56 56 56 56 56 56 55 54 53 52 52 52 53 52 51 51 51 51 50 50 49 48 48 47 47 47 47 47 47 47 47 47 47 47 47 47 47 46 45 45 44 44 44 44 45 46 47 48 49 49 50 51 51 51 52 53 53 54